Location: Hochstatterhof
(48.7256°N, 10.3487°E)
Time: 21:58:54
(UTC+00:00)

H-2A R/B - Pass Details

Date: 26 September 2023
Orbit: 462 x 467 km, 97.4° (Epoch: 20 October)

Event Time Altitude Azimuth Distance (km) Brightness Sun altitude
Rises 03:48:46 0° 15° (NNE) 2,527 6.6 -14.1°
Reaches altitude 10° 03:50:51 10° 19° (NNE) 1,644 5.7 -13.8°
Maximum altitude 03:54:21 62° 101° (E) 536 3.0 -13.2°
Drops below altitude 10° 03:57:49 10° 183° (S) 1,628 5.1 -12.7°
Sets 03:59:52 0° 187° (S) 2,499 6.0 -12.3°
